THOR ABLESTAR DEB, 354

Orbit data source: Space-Track

THOR ABLESTAR DEB, 354 is space debris in LEO originally from a launch on Thu, 29 Jun 1961 UTC launched from the Air Force Eastern Test Range (AFETR). Debris objects in space refer to the collection of defunct objects orbiting the Earth. Examples of debris include non-operational satellites, rocket bodies, and fragments generated from explosions, collisions, or faulty payload assembly.

Loading next visibility...
THOR ABLESTAR DEB details
Identifier
354, 1961-015DU
Orbit
LEO
Last TLE update10 hours ago
Origin
Flag of USUSAF SSD (US)
ManufacturerUnknown
MissionSpacecraft
Bus & MotorUnknown
MassUnknown
Launch date (UTC)
1961-06-29 (64 years ago)
Launch vehicleUnknown
Launch site
Air Force Eastern Test Range (AFETR)
Object type
Payload
Rocket body
Debris
Shape & HBRUnknown
Radar Cross SectionSmall (<0.1 m²)

Expand to show TLE details & history

TLE from 10 hours ago
0 THOR ABLESTAR DEB
1   354U 61015DU  25013.96663378  .00000167  00000-0  34107-3 0  9996
2   354  67.0651 189.0579 0169769 311.8776 126.1088 13.49163864408215
Epoch: 2025-01-13T23:11Z
Definitive object data (Epoch: 2025-01-13T23:11:57.158Z)
Latitude65.01649°
Longitude152.01033°
Altitude1,161.705 km
Speed7.241 km/s
True Right ascension16h 54m 42s
True Declination64° 53' 30"
Sunlit
Object was in daylight at TLE epoch
Visualization TLE readout
Latitude-62.16656°
Longitude33.59166°
Altitude983.421 km
Speed7.416 km/s
Apparent Right ascension23h 14m 54s
Apparent Declination-81° 09' 44"
Sunlit
Object is in daylight
Visualization observer readout
Local Sidereal Time09:43:38
Azimuth185.105° SSW
Elevation-47.959°
Doppler factor1
Orbital elements
Apogee altitude1,200.242 km
Perigee altitude947.222 km
Semi-major axis7,451.869 km
Eccentricity0.0169769
Inclination67.0651°
RAAN189.0579°
Arg. of periapsis311.8776°
True anomaly127.66088°
Mean anomaly126.1088°
Eccentric anomaly126.88679°
Mean motion3.374 °/min
BSTAR0.00034107
Orbital period106.7 mins
Loading maneuver chart data...

THOR ABLESTAR DEB Visibility forecast

Observer location: undefined°, undefined

Span
Click to sort rows by Start time (UTC) header in descending order
Start Az.
Max El. time (UTC)
Max El. Az.
Max El.
End time (UTC)
End Az.
6 mins2025-01-14 11:23:45.507Z125.649° SE2025-01-14 11:26:45.507Z98.054° ESE13.503°2025-01-14 11:29:45.507Z71.525° E
12 mins2025-01-14 13:09:45.507Z205.579° SW2025-01-14 13:15:45.507Z38.439° NE44.476°2025-01-14 13:21:45.507Z29.261° NE
8 mins2025-01-14 15:02:45.507Z284.126° WNW2025-01-14 15:05:45.507Z315.569° NNW20.069°2025-01-14 15:10:45.507Z3.488° NNE
10 mins2025-01-14 20:41:45.507Z357.113° N2025-01-14 20:46:45.507Z46.63° ENE23.438°2025-01-14 20:51:45.507Z93.413° ESE
13 mins2025-01-14 22:30:45.507Z328.325° NNW2025-01-14 22:36:45.507Z280.2° WNW44.194°2025-01-14 22:43:45.507Z159.715° S
5 mins2025-01-15 00:23:45.507Z278.588° WNW2025-01-15 00:25:45.507Z261.751° W13.345°2025-01-15 00:28:45.507Z237.03° WSW
|